Time,TemperatureF,DewpointF,PressureIn,WindDirection,WindDirectionDegrees,WindSpeedMPH,WindSpeedGustMPH,Humidity,HourlyPrecipIn,Conditions,Clouds,dailyrainin,SoftwareType,DateUTC
2013-01-24 00:02:00,13.6,-5.2,-100.00,East,90,0.0,0.0,38,0.00,,,0.00,WSDL version 423,2013-01-24 05:02:00,
2013-01-24 00:05:00,13.7,-5.1,-100.00,East,90,0.0,0.0,38,0.00,,,0.00,WSDL version 423,2013-01-24 05:05:00,
2013-01-24 00:08:00,13.8,-5.0,-100.00,ESE,121,0.0,0.0,38,0.00,,,0.00,WSDL version 423,2013-01-24 05:08:00,
2013-01-24 00:14:00,14.0,-2.1,-100.00,SE,135,0.0,1.6,44,0.00,,,0.00,WSDL version 423,2013-01-24 05:14:00,
2013-01-24 00:20:00,13.9,-2.2,-100.00,SE,135,0.0,0.0,44,-99.99,,,-99.99,WSDL version 423,2013-01-24 05:20:00,
2013-01-24 00:26:00,13.8,-2.3,-100.00,SE,135,0.0,0.0,44,-99.99,,,-99.99,WSDL version 423,2013-01-24 05:26:00,
2013-01-24 00:32:00,13.6,-2.4,-100.00,SE,135,0.0,0.0,44,0.00,,,0.00,WSDL version 423,2013-01-24 05:32:00,
2013-01-24 00:38:00,13.5,-2.6,-100.00,SE,135,0.0,0.0,44,-99.99,,,-99.99,WSDL version 423,2013-01-24 05:38:00,
2013-01-24 00:44:00,13.2,-2.8,-100.00,SE,135,0.0,0.0,44,0.00,,,0.00,WSDL version 423,2013-01-24 05:44:00,
2013-01-24 00:47:00,13.1,-2.9,-100.00,SE,135,0.0,0.0,44,-99.99,,,-99.99,WSDL version 423,2013-01-24 05:47:00,
2013-01-24 00:53:00,12.9,-3.1,-100.00,SE,135,0.0,0.0,44,0.00,,,0.00,WSDL version 423,2013-01-24 05:53:00,
2013-01-24 00:59:00,12.8,-3.2,-100.00,SE,135,0.0,0.0,44,-99.99,,,-99.99,WSDL version 423,2013-01-24 05:59:00,
2013-01-24 01:05:00,12.6,-3.4,-100.00,SE,135,0.0,0.0,44,-99.99,,,-99.99,WSDL version 423,2013-01-24 06:05:00,
2013-01-24 01:11:00,12.6,-3.4,-100.00,SE,135,0.0,0.0,44,0.00,,,0.00,WSDL version 423,2013-01-24 06:11:00,
2013-01-24 01:17:00,12.4,-3.6,-100.00,SE,135,0.0,0.0,44,0.00,,,0.00,WSDL version 423,2013-01-24 06:17:00,
2013-01-24 01:23:00,12.2,-3.8,-100.00,SE,135,0.0,0.0,44,0.00,,,0.00,WSDL version 423,2013-01-24 06:23:00,
2013-01-24 01:29:00,12.1,-3.9,-100.00,SE,135,0.0,0.0,44,0.00,,,0.00,WSDL version 423,2013-01-24 06:29:00,
2013-01-24 01:35:00,12.0,-3.9,-100.00,SE,135,0.0,0.0,44,0.00,,,0.00,WSDL version 423,2013-01-24 06:35:00,
2013-01-24 01:41:00,11.9,-4.1,-100.00,SE,135,0.0,0.0,44,-99.99,,,-99.99,WSDL version 423,2013-01-24 06:41:00,
2013-01-24 01:47:00,11.8,-4.1,-100.00,SE,135,0.0,0.0,44,0.00,,,0.00,WSDL version 423,2013-01-24 06:47:00,
2013-01-24 01:53:00,11.8,-4.1,-100.00,SE,135,0.0,0.0,44,0.00,,,0.00,WSDL version 423,2013-01-24 06:53:00,
2013-01-24 01:59:00,11.7,-4.3,-100.00,SE,135,0.0,0.0,44,0.00,,,0.00,WSDL version 423,2013-01-24 06:59:00,
2013-01-24 02:05:00,11.7,-4.3,-100.00,SE,135,0.0,0.0,44,0.00,,,0.00,WSDL version 423,2013-01-24 07:05:00,
2013-01-24 02:11:00,11.7,-4.3,-100.00,SE,135,0.0,0.0,44,0.00,,,0.00,WSDL version 423,2013-01-24 07:11:00,
2013-01-24 02:17:00,11.7,-4.3,-100.00,SE,135,0.0,0.0,44,0.00,,,0.00,WSDL version 423,2013-01-24 07:17:00,
2013-01-24 02:23:00,11.6,-4.3,-100.00,SE,135,0.0,0.0,44,0.00,,,0.00,WSDL version 423,2013-01-24 07:23:00,
2013-01-24 02:29:00,11.5,-4.4,-100.00,SE,135,0.0,0.0,44,0.00,,,0.00,WSDL version 423,2013-01-24 07:29:00,
2013-01-24 02:35:00,11.4,-4.5,-100.00,SE,135,0.0,0.0,44,0.00,,,0.00,WSDL version 423,2013-01-24 07:35:00,
2013-01-24 02:41:00,11.3,-4.6,-100.00,SE,135,0.0,0.0,44,0.00,,,0.00,WSDL version 423,2013-01-24 07:41:00,
2013-01-24 02:47:00,11.4,-4.5,-100.00,SE,135,0.0,0.0,44,0.00,,,0.00,WSDL version 423,2013-01-24 07:47:00,
2013-01-24 02:53:00,11.3,-4.6,-100.00,SE,135,0.0,0.0,44,0.00,,,0.00,WSDL version 423,2013-01-24 07:53:00,
2013-01-24 02:59:00,11.2,-4.7,-100.00,SE,135,0.0,0.0,44,0.00,,,0.00,WSDL version 423,2013-01-24 07:59:00,
2013-01-24 03:05:00,11.1,-4.8,-100.00,SE,135,0.0,0.0,44,0.00,,,0.00,WSDL version 423,2013-01-24 08:05:00,
2013-01-24 03:11:00,11.1,-4.8,-100.00,SE,135,0.0,0.0,44,0.00,,,0.00,WSDL version 423,2013-01-24 08:11:00,
2013-01-24 03:17:00,11.1,-4.8,-100.00,SE,135,0.0,0.0,44,0.00,,,0.00,WSDL version 423,2013-01-24 08:17:00,
2013-01-24 03:23:00,10.9,-4.9,-100.00,SE,135,0.0,0.0,44,0.00,,,0.00,WSDL version 423,2013-01-24 08:23:00,
2013-01-24 03:29:00,10.9,-4.9,-100.00,SE,135,0.0,0.0,44,0.00,,,0.00,WSDL version 423,2013-01-24 08:29:00,
2013-01-24 03:35:00,10.9,-4.9,-100.00,SE,135,0.0,0.0,44,-99.99,,,-99.99,WSDL version 423,2013-01-24 08:35:00,
2013-01-24 03:41:00,10.8,-5.0,-100.00,SE,135,0.0,0.0,44,-99.99,,,-99.99,WSDL version 423,2013-01-24 08:41:00,
2013-01-24 03:47:00,10.8,-5.1,-100.00,SE,135,0.0,0.0,44,0.00,,,0.00,WSDL version 423,2013-01-24 08:47:00,
2013-01-24 03:53:00,10.8,-5.1,-100.00,SE,135,0.0,0.0,44,0.00,,,0.00,WSDL version 423,2013-01-24 08:53:00,
2013-01-24 03:59:00,10.8,-5.1,-100.00,SE,135,0.0,0.0,44,0.00,,,0.00,WSDL version 423,2013-01-24 08:59:00,
2013-01-24 04:05:00,10.9,-5.0,-100.00,SE,135,0.0,0.0,44,0.00,,,0.00,WSDL version 423,2013-01-24 09:05:00,
2013-01-24 04:11:00,11.1,-4.8,-100.00,SE,129,0.0,0.9,44,0.00,,,0.00,WSDL version 423,2013-01-24 09:11:00,
2013-01-24 04:17:00,11.3,-4.6,-100.00,ESE,113,0.0,0.9,44,-99.99,,,-99.99,WSDL version 423,2013-01-24 09:17:00,
2013-01-24 04:23:00,11.6,-4.3,-100.00,SE,135,0.0,2.5,44,0.00,,,0.00,WSDL version 423,2013-01-24 09:23:00,
2013-01-24 04:29:00,11.7,-4.2,-100.00,SE,135,0.0,1.6,44,0.00,,,0.00,WSDL version 423,2013-01-24 09:29:00,
2013-01-24 04:35:00,11.8,-4.1,-100.00,SE,135,0.0,0.0,44,0.00,,,0.00,WSDL version 423,2013-01-24 09:35:00,
2013-01-24 04:41:00,12.0,-4.0,-100.00,SE,135,0.0,0.9,44,0.00,,,0.00,WSDL version 423,2013-01-24 09:41:00,
2013-01-24 04:47:00,12.0,-3.9,-100.00,SE,135,0.0,0.9,44,0.00,,,0.00,WSDL version 423,2013-01-24 09:47:00,
2013-01-24 04:53:00,12.2,-3.8,-100.00,ESE,113,0.0,1.3,44,0.00,,,0.00,WSDL version 423,2013-01-24 09:53:00,
2013-01-24 04:59:00,12.4,-3.6,-100.00,ESE,113,0.0,1.3,44,0.00,,,0.00,WSDL version 423,2013-01-24 09:59:00,
2013-01-24 05:05:00,12.4,-3.5,-100.00,ESE,113,0.0,0.0,44,0.00,,,0.00,WSDL version 423,2013-01-24 10:05:00,
2013-01-24 05:11:00,12.6,-3.4,-100.00,ESE,113,0.0,0.0,44,0.00,,,0.00,WSDL version 423,2013-01-24 10:11:00,
2013-01-24 05:17:00,12.6,-3.4,-100.00,ESE,113,0.0,0.0,44,0.00,,,0.00,WSDL version 423,2013-01-24 10:17:00,
2013-01-24 05:23:00,12.6,-3.4,-100.00,ESE,113,0.0,0.0,44,0.00,,,0.00,WSDL version 423,2013-01-24 10:23:00,
2013-01-24 05:29:00,12.7,-3.3,-100.00,ESE,113,0.0,0.0,44,0.00,,,0.00,WSDL version 423,2013-01-24 10:29:00,
2013-01-24 05:35:00,12.7,-3.3,-100.00,ESE,113,0.0,0.0,44,0.00,,,0.00,WSDL version 423,2013-01-24 10:35:00,
2013-01-24 05:41:00,12.7,-3.3,-100.00,ESE,107,0.3,2.2,44,0.00,,,0.00,WSDL version 423,2013-01-24 10:41:00,
2013-01-24 05:47:00,12.8,-3.2,-100.00,SE,130,0.0,2.2,44,0.00,,,0.00,WSDL version 423,2013-01-24 10:47:00,
2013-01-24 05:53:00,12.9,-3.1,-100.00,ESE,113,0.0,1.6,44,0.00,,,0.00,WSDL version 423,2013-01-24 10:53:00,
2013-01-24 05:59:00,12.9,-3.1,-100.00,ESE,104,0.0,0.0,44,0.00,,,0.00,WSDL version 423,2013-01-24 10:59:00,
2013-01-24 06:05:00,12.9,-3.1,-100.00,East,98,0.0,2.5,44,0.00,,,0.00,WSDL version 423,2013-01-24 11:05:00,
2013-01-24 06:11:00,12.9,-3.1,-100.00,SE,132,0.0,2.7,44,0.00,,,0.00,WSDL version 423,2013-01-24 11:11:00,
2013-01-24 06:17:00,12.7,-3.3,-100.00,SE,135,0.0,2.7,44,0.00,,,0.00,WSDL version 423,2013-01-24 11:17:00,
2013-01-24 06:23:00,12.7,-3.3,-100.00,SE,135,0.0,2.2,44,0.00,,,0.00,WSDL version 423,2013-01-24 11:23:00,
2013-01-24 06:29:00,12.7,-3.3,-100.00,SE,135,0.0,1.1,44,0.00,,,0.00,WSDL version 423,2013-01-24 11:29:00,
2013-01-24 06:35:00,12.6,-3.4,-100.00,SE,135,0.0,0.0,44,0.00,,,0.00,WSDL version 423,2013-01-24 11:35:00,
2013-01-24 06:41:00,12.5,-3.5,-100.00,SE,135,0.0,0.0,44,0.00,,,0.00,WSDL version 423,2013-01-24 11:41:00,
2013-01-24 06:47:00,12.2,-3.7,-100.00,SE,135,0.0,0.0,44,0.00,,,0.00,WSDL version 423,2013-01-24 11:47:00,
2013-01-24 06:53:00,12.2,-3.8,-100.00,SE,135,0.0,1.1,44,0.00,,,0.00,WSDL version 423,2013-01-24 11:53:00,
2013-01-24 06:59:00,12.1,-3.9,-100.00,South,177,0.0,1.1,44,0.00,,,0.00,WSDL version 423,2013-01-24 11:59:00,
2013-01-24 07:05:00,12.0,-3.9,-100.00,South,180,0.0,1.1,44,0.00,,,0.00,WSDL version 423,2013-01-24 12:05:00,
2013-01-24 07:11:00,12.0,-3.9,-100.00,SE,135,0.1,1.6,44,0.00,,,0.00,WSDL version 423,2013-01-24 12:11:00,
2013-01-24 07:17:00,12.0,-3.9,-100.00,SE,135,0.0,1.6,44,0.00,,,0.00,WSDL version 423,2013-01-24 12:17:00,
2013-01-24 07:23:00,12.0,-3.9,-100.00,SE,135,0.7,2.0,44,0.00,,,0.00,WSDL version 423,2013-01-24 12:23:00,
2013-01-24 07:29:00,12.1,-3.9,-100.00,ESE,113,0.8,3.6,44,0.00,,,0.00,WSDL version 423,2013-01-24 12:29:00,
2013-01-24 07:35:00,12.2,-3.8,-100.00,West,276,0.0,3.1,44,0.00,,,0.00,WSDL version 423,2013-01-24 12:35:00,
2013-01-24 07:41:00,12.2,-3.8,-100.00,SE,132,0.5,2.5,44,0.00,,,0.00,WSDL version 423,2013-01-24 12:41:00,
2013-01-24 07:47:00,12.4,-3.6,-100.00,SE,125,1.2,3.1,44,0.00,,,0.00,WSDL version 423,2013-01-24 12:47:00,
2013-01-24 07:53:00,12.7,-3.3,-100.00,ESE,118,0.8,3.4,44,0.00,,,0.00,WSDL version 423,2013-01-24 12:53:00,
2013-01-24 07:59:00,12.9,-3.1,-100.00,SE,143,2.4,4.9,44,0.00,,,0.00,WSDL version 423,2013-01-24 12:59:00,
2013-01-24 08:05:00,13.3,-2.8,-100.00,SE,143,2.1,6.0,44,0.00,,,0.00,WSDL version 423,2013-01-24 13:05:00,
2013-01-24 08:11:00,13.3,-2.7,-100.00,SSE,152,3.1,5.6,44,0.00,,,0.00,WSDL version 423,2013-01-24 13:11:00,
2013-01-24 08:17:00,13.5,-2.6,-100.00,SE,143,2.4,5.6,44,0.00,,,0.00,WSDL version 423,2013-01-24 13:17:00,
2013-01-24 08:23:00,13.6,-2.5,-100.00,SSE,149,2.1,5.4,44,0.00,,,0.00,WSDL version 423,2013-01-24 13:23:00,
2013-01-24 08:29:00,13.7,-2.4,-100.00,SW,236,0.7,5.4,44,0.00,,,0.00,WSDL version 423,2013-01-24 13:29:00,
2013-01-24 08:35:00,13.9,-1.8,-100.00,SW,225,0.9,3.1,48,0.00,,,0.00,WSDL version 423,2013-01-24 13:35:00,
2013-01-24 08:41:00,14.2,-0.7,-100.00,SE,132,2.7,5.8,47,0.00,,,0.00,WSDL version 423,2013-01-24 13:41:00,
2013-01-24 08:47:00,14.4,-0.4,-100.00,SE,140,1.6,5.8,47,0.00,,,0.00,WSDL version 423,2013-01-24 13:47:00,
2013-01-24 08:53:00,14.7,-0.2,-100.00,SE,133,0.7,4.9,47,0.00,,,0.00,WSDL version 423,2013-01-24 13:53:00,
2013-01-24 08:59:00,15.0,0.1,-100.00,SE,143,1.7,4.0,47,0.00,,,0.00,WSDL version 423,2013-01-24 13:59:00,
2013-01-24 09:05:00,15.3,0.1,-100.00,SE,132,0.7,3.1,46,0.00,,,0.00,WSDL version 423,2013-01-24 14:05:00,
2013-01-24 09:11:00,15.6,0.3,-100.00,SSE,153,1.9,3.8,46,0.00,,,0.00,WSDL version 423,2013-01-24 14:11:00,
2013-01-24 09:17:00,16.0,0.6,-100.00,ESE,121,3.1,8.1,46,0.00,,,0.00,WSDL version 423,2013-01-24 14:17:00,
2013-01-24 09:23:00,16.2,0.6,-100.00,SSE,148,2.7,8.1,45,0.00,,,0.00,WSDL version 423,2013-01-24 14:23:00,
2013-01-24 09:29:00,16.7,0.8,-100.00,SE,145,2.7,4.7,45,0.00,,,0.00,WSDL version 423,2013-01-24 14:29:00,
2013-01-24 09:35:00,16.9,1.0,-100.00,ESE,123,3.7,7.4,45,0.00,,,0.00,WSDL version 423,2013-01-24 14:35:00,
2013-01-24 09:41:00,17.2,0.9,-100.00,SSE,149,3.3,6.9,44,0.00,,,0.00,WSDL version 423,2013-01-24 14:41:00,
2013-01-24 09:47:00,17.5,1.1,-100.00,SSE,149,3.3,8.7,44,0.00,,,0.00,WSDL version 423,2013-01-24 14:47:00,
2013-01-24 09:53:00,17.7,0.9,-100.00,SE,133,3.6,8.7,43,0.00,,,0.00,WSDL version 423,2013-01-24 14:53:00,
2013-01-24 09:59:00,18.0,0.8,-100.00,SSE,158,3.7,7.2,42,0.00,,,0.00,WSDL version 423,2013-01-24 14:59:00,
2013-01-24 10:05:00,18.4,1.1,-100.00,SE,145,2.5,6.7,42,0.00,,,0.00,WSDL version 423,2013-01-24 15:05:00,
2013-01-24 10:11:00,18.9,1.2,-100.00,SSE,158,2.5,7.4,42,0.00,,,0.00,WSDL version 423,2013-01-24 15:11:00,
2013-01-24 10:17:00,19.4,1.3,-100.00,SE,143,3.7,6.3,40,0.00,,,0.00,WSDL version 423,2013-01-24 15:17:00,
2013-01-24 10:23:00,19.4,0.2,-100.00,SE,143,3.3,6.3,37,0.00,,,0.00,WSDL version 423,2013-01-24 15:23:00,
2013-01-24 10:29:00,19.8,0.3,-100.00,SSE,166,2.2,5.6,38,0.00,,,0.00,WSDL version 423,2013-01-24 15:29:00,
2013-01-24 10:35:00,20.1,0.2,-100.00,SE,133,3.7,5.6,37,0.00,,,0.00,WSDL version 423,2013-01-24 15:35:00,
2013-01-24 10:41:00,20.3,0.0,-100.00,ESE,121,4.1,10.3,36,0.00,,,0.00,WSDL version 423,2013-01-24 15:41:00,
2013-01-24 10:47:00,20.5,0.2,-100.00,ESE,121,3.7,10.3,36,0.00,,,0.00,WSDL version 423,2013-01-24 15:47:00,
2013-01-24 10:53:00,20.7,0.0,-100.00,SE,132,6.5,10.7,35,0.00,,,0.00,WSDL version 423,2013-01-24 15:53:00,
2013-01-24 10:59:00,20.8,-0.5,-100.00,ESE,110,4.4,10.7,34,0.00,,,0.00,WSDL version 423,2013-01-24 15:59:00,
2013-01-24 11:05:00,21.2,-0.2,-100.00,ENE,61,2.8,6.0,35,0.00,,,0.00,WSDL version 423,2013-01-24 16:05:00,
2013-01-24 11:11:00,21.3,0.0,-100.00,South,186,2.3,5.4,34,0.00,,,0.00,WSDL version 423,2013-01-24 16:11:00,
2013-01-24 11:17:00,21.6,-0.2,-100.00,SE,129,5.7,11.9,33,0.00,,,0.00,WSDL version 423,2013-01-24 16:17:00,
2013-01-24 11:23:00,21.5,-0.6,-100.00,ESE,108,5.6,11.9,33,0.00,,,0.00,WSDL version 423,2013-01-24 16:23:00,
2013-01-24 11:29:00,21.6,-0.6,-100.00,ESE,119,5.5,10.7,33,0.00,,,0.00,WSDL version 423,2013-01-24 16:29:00,
2013-01-24 11:35:00,21.9,-0.3,-100.00,SE,143,3.4,10.7,33,0.00,,,0.00,WSDL version 423,2013-01-24 16:35:00,
2013-01-24 11:41:00,21.9,-0.5,-100.00,SE,135,5.8,12.8,32,0.00,,,0.00,WSDL version 423,2013-01-24 16:41:00,
2013-01-24 11:47:00,22.0,-0.8,-100.00,East,93,4.9,13.0,32,0.00,,,0.00,WSDL version 423,2013-01-24 16:47:00,
2013-01-24 11:53:00,22.1,-0.7,-100.00,South,169,4.2,11.4,32,0.00,,,0.00,WSDL version 423,2013-01-24 16:53:00,
2013-01-24 11:59:00,22.4,-0.4,-100.00,SE,132,5.4,8.1,32,0.00,,,0.00,WSDL version 423,2013-01-24 16:59:00,
2013-01-24 12:05:00,22.4,-0.4,-100.00,SE,124,4.4,11.0,32,0.00,,,0.00,WSDL version 423,2013-01-24 17:05:00,
2013-01-24 12:11:00,22.5,-0.3,-100.00,SE,135,5.0,10.5,32,0.00,,,0.00,WSDL version 423,2013-01-24 17:11:00,
2013-01-24 12:17:00,22.8,-0.1,-100.00,SE,128,3.0,10.5,32,0.00,,,0.00,WSDL version 423,2013-01-24 17:17:00,
2013-01-24 12:23:00,23.2,0.3,-100.00,East,101,4.1,6.3,32,0.00,,,0.00,WSDL version 423,2013-01-24 17:23:00,
2013-01-24 12:29:00,23.2,0.3,-100.00,ESE,113,7.0,10.7,32,0.00,,,0.00,WSDL version 423,2013-01-24 17:29:00,
2013-01-24 12:35:00,23.0,0.2,-100.00,SE,132,4.3,15.4,32,0.00,,,0.00,WSDL version 423,2013-01-24 17:35:00,
2013-01-24 12:41:00,23.3,0.4,-100.00,SE,130,7.8,10.1,32,0.00,,,0.00,WSDL version 423,2013-01-24 17:41:00,
2013-01-24 12:47:00,23.1,0.3,-100.00,ESE,107,6.1,10.7,32,0.00,,,0.00,WSDL version 423,2013-01-24 17:47:00,
2013-01-24 12:53:00,23.4,0.2,-100.00,SE,139,5.7,14.5,31,0.00,,,0.00,WSDL version 423,2013-01-24 17:53:00,
2013-01-24 12:59:00,23.3,-1.5,-100.00,SE,135,7.9,14.5,29,0.00,,,0.00,WSDL version 423,2013-01-24 17:59:00,
2013-01-24 13:05:00,23.5,-1.3,-100.00,ESE,110,6.4,13.2,29,0.00,,,0.00,WSDL version 423,2013-01-24 18:05:00,
2013-01-24 13:11:00,23.3,-1.4,-100.00,SSE,149,7.2,12.8,29,0.00,,,0.00,WSDL version 423,2013-01-24 18:11:00,
2013-01-24 13:17:00,23.6,-1.2,-100.00,SSE,151,7.5,12.8,29,0.00,,,0.00,WSDL version 423,2013-01-24 18:17:00,
2013-01-24 13:23:00,23.5,-1.3,-100.00,ESE,106,7.8,12.8,29,0.00,,,0.00,WSDL version 423,2013-01-24 18:23:00,
2013-01-24 13:29:00,23.5,-1.2,-100.00,ESE,118,8.0,13.2,29,0.00,,,0.00,WSDL version 423,2013-01-24 18:29:00,
2013-01-24 13:35:00,23.7,-1.1,-100.00,SE,135,8.4,15.2,29,0.00,,,0.00,WSDL version 423,2013-01-24 18:35:00,
2013-01-24 13:41:00,23.5,-1.2,-100.00,South,169,5.3,15.2,29,0.00,,,0.00,WSDL version 423,2013-01-24 18:41:00,
2013-01-24 13:47:00,23.6,-1.2,-100.00,SE,124,6.9,12.8,29,0.00,,,0.00,WSDL version 423,2013-01-24 18:47:00,
2013-01-24 13:53:00,23.7,-1.1,-100.00,SSE,154,4.5,13.2,29,0.00,,,0.00,WSDL version 423,2013-01-24 18:53:00,
2013-01-24 13:59:00,23.8,-1.0,-100.00,ESE,115,5.4,12.5,29,0.00,,,0.00,WSDL version 423,2013-01-24 18:59:00,
2013-01-24 14:05:00,24.0,-0.8,-100.00,SE,130,4.9,12.5,29,0.00,,,0.00,WSDL version 423,2013-01-24 19:05:00,
2013-01-24 14:11:00,23.9,-0.9,-100.00,ESE,106,7.7,12.8,29,0.00,,,0.00,WSDL version 423,2013-01-24 19:11:00,
2013-01-24 14:17:00,23.9,-0.9,-100.00,ESE,115,4.7,12.8,29,0.00,,,0.00,WSDL version 423,2013-01-24 19:17:00,
2013-01-24 14:23:00,24.1,-0.8,-100.00,ESE,113,6.6,12.5,29,0.00,,,0.00,WSDL version 423,2013-01-24 19:23:00,
2013-01-24 14:29:00,24.3,-0.6,-100.00,SSE,164,5.9,12.5,29,0.00,,,0.00,WSDL version 423,2013-01-24 19:29:00,
2013-01-24 14:35:00,24.1,-0.7,-100.00,South,186,3.2,6.7,29,0.00,,,0.00,WSDL version 423,2013-01-24 19:35:00,
2013-01-24 14:41:00,24.3,-0.6,-100.00,ESE,105,4.2,13.0,29,0.00,,,0.00,WSDL version 423,2013-01-24 19:41:00,
2013-01-24 14:47:00,24.1,-0.7,-100.00,ESE,118,4.0,10.5,29,0.00,,,0.00,WSDL version 423,2013-01-24 19:47:00,
2013-01-24 14:53:00,24.4,-0.4,-100.00,SE,124,7.9,13.0,29,0.00,,,0.00,WSDL version 423,2013-01-24 19:53:00,
2013-01-24 14:59:00,24.3,-0.6,-100.00,WNW,299,6.9,15.2,29,0.00,,,0.00,WSDL version 423,2013-01-24 19:59:00,
2013-01-24 15:05:00,24.1,-0.8,-100.00,ESE,121,7.9,17.7,29,0.00,,,0.00,WSDL version 423,2013-01-24 20:05:00,
2013-01-24 15:11:00,23.8,-1.0,-100.00,SE,125,4.7,13.0,29,0.00,,,0.00,WSDL version 423,2013-01-24 20:11:00,
2013-01-24 15:17:00,23.6,-1.2,-100.00,East,96,8.5,13.0,29,0.00,,,0.00,WSDL version 423,2013-01-24 20:17:00,
2013-01-24 15:23:00,23.5,-1.2,-100.00,SSE,149,4.2,12.8,29,0.00,,,0.00,WSDL version 423,2013-01-24 20:23:00,
2013-01-24 15:29:00,23.5,-1.2,-100.00,SE,145,6.0,10.7,29,0.00,,,0.00,WSDL version 423,2013-01-24 20:29:00,
2013-01-24 15:35:00,23.5,-1.2,-100.00,East,93,5.1,10.3,29,0.00,,,0.00,WSDL version 423,2013-01-24 20:35:00,
2013-01-24 15:41:00,23.4,-1.4,-100.00,ESE,106,6.1,9.4,29,0.00,,,0.00,WSDL version 423,2013-01-24 20:41:00,
2013-01-24 15:47:00,23.3,-1.5,-100.00,ESE,118,3.9,8.9,29,0.00,,,0.00,WSDL version 423,2013-01-24 20:47:00,
2013-01-24 15:53:00,23.0,-0.3,-100.00,SSE,160,4.6,13.2,32,0.00,,,0.00,WSDL version 423,2013-01-24 20:53:00,
2013-01-24 15:59:00,22.9,0.0,-100.00,SSE,158,3.5,8.9,32,0.00,,,0.00,WSDL version 423,2013-01-24 20:59:00,
2013-01-24 16:05:00,22.8,0.0,-100.00,ESE,115,3.5,7.6,32,0.00,,,0.00,WSDL version 423,2013-01-24 21:05:00,
2013-01-24 16:11:00,22.8,0.0,-100.00,ESE,120,5.2,8.5,32,0.00,,,0.00,WSDL version 423,2013-01-24 21:11:00,
2013-01-24 16:17:00,22.8,-0.1,-100.00,SE,141,4.1,9.2,32,0.00,,,0.00,WSDL version 423,2013-01-24 21:17:00,
2013-01-24 16:23:00,22.6,-0.2,-100.00,SE,143,7.0,10.3,32,0.00,,,0.00,WSDL version 423,2013-01-24 21:23:00,
2013-01-24 16:29:00,22.4,-0.4,-100.00,SE,135,6.2,11.0,32,0.00,,,0.00,WSDL version 423,2013-01-24 21:29:00,
2013-01-24 16:35:00,22.3,-0.5,-100.00,ESE,113,4.5,11.0,32,0.00,,,0.00,WSDL version 423,2013-01-24 21:35:00,
2013-01-24 16:41:00,22.1,-0.7,-100.00,East,98,7.4,13.2,32,0.00,,,0.00,WSDL version 423,2013-01-24 21:41:00,
2013-01-24 16:47:00,21.9,-0.7,-100.00,SE,133,8.3,14.5,33,0.00,,,0.00,WSDL version 423,2013-01-24 21:47:00,
2013-01-24 16:53:00,21.9,-0.3,-100.00,ESE,119,6.5,14.5,33,0.00,,,0.00,WSDL version 423,2013-01-24 21:53:00,
2013-01-24 16:59:00,21.8,-0.4,-100.00,SE,141,5.1,12.5,33,0.00,,,0.00,WSDL version 423,2013-01-24 21:59:00,
2013-01-24 17:05:00,21.6,-0.6,-100.00,ESE,113,5.6,10.5,33,0.00,,,0.00,WSDL version 423,2013-01-24 22:05:00,
2013-01-24 17:11:00,21.4,-0.7,-100.00,ESE,107,5.9,14.1,33,0.00,,,0.00,WSDL version 423,2013-01-24 22:11:00,
2013-01-24 17:17:00,21.2,-0.9,-100.00,SE,141,4.9,11.9,33,0.00,,,0.00,WSDL version 423,2013-01-24 22:17:00,
2013-01-24 17:23:00,21.2,-0.9,-100.00,SE,125,6.7,12.5,33,0.00,,,0.00,WSDL version 423,2013-01-24 22:23:00,
2013-01-24 17:29:00,21.2,-0.9,-100.00,East,98,5.2,12.5,33,0.00,,,0.00,WSDL version 423,2013-01-24 22:29:00,
2013-01-24 17:35:00,21.1,-1.0,-100.00,SSE,158,3.4,11.9,33,0.00,,,0.00,WSDL version 423,2013-01-24 22:35:00,
2013-01-24 17:41:00,20.9,-0.6,-100.00,ESE,121,4.1,7.2,34,0.00,,,0.00,WSDL version 423,2013-01-24 22:41:00,
2013-01-24 17:47:00,20.8,-0.7,-100.00,SSE,149,4.8,9.6,34,0.00,,,0.00,WSDL version 423,2013-01-24 22:47:00,
2013-01-24 17:53:00,20.7,-0.8,-100.00,ESE,110,5.3,12.5,34,0.00,,,0.00,WSDL version 423,2013-01-24 22:53:00,
2013-01-24 17:59:00,20.7,-1.0,-100.00,ESE,115,5.7,12.5,33,0.00,,,0.00,WSDL version 423,2013-01-24 22:59:00,
2013-01-24 18:05:00,20.5,-1.4,-100.00,SE,143,5.3,10.1,33,0.00,,,0.00,WSDL version 423,2013-01-24 23:05:00,
2013-01-24 18:11:00,20.5,-1.6,-100.00,SE,128,5.0,10.1,33,0.00,,,0.00,WSDL version 423,2013-01-24 23:11:00,
2013-01-24 18:17:00,20.4,-1.6,-100.00,ESE,105,5.4,11.2,33,0.00,,,0.00,WSDL version 423,2013-01-24 23:17:00,
2013-01-24 18:23:00,20.3,-1.7,-100.00,SE,141,4.8,10.3,33,0.00,,,0.00,WSDL version 423,2013-01-24 23:23:00,
2013-01-24 18:29:00,20.2,-1.8,-100.00,SE,146,5.6,13.0,33,0.00,,,0.00,WSDL version 423,2013-01-24 23:29:00,
2013-01-24 18:35:00,20.1,-1.9,-100.00,ESE,121,5.5,13.0,33,0.00,,,0.00,WSDL version 423,2013-01-24 23:35:00,
2013-01-24 18:41:00,20.1,-1.9,-100.00,ESE,103,6.5,13.2,33,0.00,,,0.00,WSDL version 423,2013-01-24 23:41:00,
2013-01-24 18:47:00,19.9,-2.1,-100.00,ESE,104,6.5,13.2,33,0.00,,,0.00,WSDL version 423,2013-01-24 23:47:00,
2013-01-24 18:53:00,19.8,-2.2,-100.00,SE,132,5.2,10.5,33,0.00,,,0.00,WSDL version 423,2013-01-24 23:53:00,
2013-01-24 18:59:00,19.8,-2.2,-100.00,SE,135,5.5,10.1,33,0.00,,,0.00,WSDL version 423,2013-01-24 23:59:00,
2013-01-24 19:05:00,19.6,-2.4,-100.00,SE,146,6.0,10.1,33,0.00,,,0.00,WSDL version 423,2013-01-25 00:05:00,
2013-01-24 19:11:00,19.6,-2.3,-100.00,SE,125,5.9,10.5,33,0.00,,,0.00,WSDL version 423,2013-01-25 00:11:00,
2013-01-24 19:17:00,19.4,-2.0,-100.00,ESE,120,5.2,10.5,34,0.00,,,0.00,WSDL version 423,2013-01-25 00:17:00,
2013-01-24 19:23:00,19.3,-2.1,-100.00,ESE,121,3.4,7.6,34,0.00,,,0.00,WSDL version 423,2013-01-25 00:23:00,
2013-01-24 19:29:00,19.1,-2.3,-100.00,SE,144,2.5,6.3,34,0.00,,,0.00,WSDL version 423,2013-01-25 00:29:00,
2013-01-24 19:35:00,19.0,-2.3,-100.00,ESE,115,4.9,11.2,34,0.00,,,0.00,WSDL version 423,2013-01-25 00:35:00,
2013-01-24 19:41:00,19.0,-2.3,-100.00,ESE,121,5.8,11.2,34,0.00,,,0.00,WSDL version 423,2013-01-25 00:41:00,
2013-01-24 19:47:00,19.0,-1.9,-100.00,ESE,120,3.7,10.3,35,0.00,,,0.00,WSDL version 423,2013-01-25 00:47:00,
2013-01-24 19:53:00,18.9,-1.9,-100.00,ESE,122,5.6,15.4,35,0.00,,,0.00,WSDL version 423,2013-01-25 00:53:00,
2013-01-24 19:59:00,18.7,-2.1,-100.00,SE,138,4.1,13.4,35,0.00,,,0.00,WSDL version 423,2013-01-25 00:59:00,
2013-01-24 20:05:00,18.7,-2.1,-100.00,SE,138,6.1,10.3,35,0.00,,,0.00,WSDL version 423,2013-01-25 01:05:00,
2013-01-24 20:11:00,18.5,-2.3,-100.00,ESE,122,3.3,10.7,35,0.00,,,0.00,WSDL version 423,2013-01-25 01:11:00,
2013-01-24 20:17:00,18.4,-2.4,-100.00,East,93,5.0,10.7,35,0.00,,,0.00,WSDL version 423,2013-01-25 01:17:00,
2013-01-24 20:23:00,18.3,-2.4,-100.00,SE,129,3.8,8.5,35,0.00,,,0.00,WSDL version 423,2013-01-25 01:23:00,
2013-01-24 20:29:00,18.2,-2.6,-100.00,ESE,113,4.7,10.5,35,0.00,,,0.00,WSDL version 423,2013-01-25 01:29:00,
2013-01-24 20:35:00,18.1,-2.5,-100.00,SE,135,3.5,10.5,36,0.00,,,0.00,WSDL version 423,2013-01-25 01:35:00,
2013-01-24 20:41:00,18.1,-2.1,-100.00,SE,129,3.8,10.3,36,0.00,,,0.00,WSDL version 423,2013-01-25 01:41:00,
2013-01-24 20:47:00,18.1,-2.1,-100.00,SE,135,5.0,11.0,36,0.00,,,0.00,WSDL version 423,2013-01-25 01:47:00,
2013-01-24 20:53:00,17.9,-2.2,-100.00,SSE,152,4.0,11.0,36,0.00,,,0.00,WSDL version 423,2013-01-25 01:53:00,
2013-01-24 20:59:00,17.8,-2.4,-100.00,SE,130,3.7,9.4,36,0.00,,,0.00,WSDL version 423,2013-01-25 01:59:00,
2013-01-24 21:05:00,17.8,-2.4,-100.00,ESE,118,3.0,9.4,36,0.00,,,0.00,WSDL version 423,2013-01-25 02:05:00,
2013-01-24 21:11:00,17.7,-2.1,-100.00,ESE,107,5.0,12.5,37,0.00,,,0.00,WSDL version 423,2013-01-25 02:11:00,
2013-01-24 21:17:00,17.8,-1.9,-100.00,SE,127,2.5,12.5,37,0.00,,,0.00,WSDL version 423,2013-01-25 02:17:00,
2013-01-24 21:23:00,17.6,-2.0,-100.00,ESE,121,4.3,10.7,37,0.00,,,0.00,WSDL version 423,2013-01-25 02:23:00,
2013-01-24 21:29:00,17.8,-1.9,-100.00,ESE,115,3.6,10.7,37,0.00,,,0.00,WSDL version 423,2013-01-25 02:29:00,
2013-01-24 21:35:00,17.6,-1.8,-100.00,SE,132,4.8,8.7,38,0.00,,,0.00,WSDL version 423,2013-01-25 02:35:00,
2013-01-24 21:41:00,17.6,-1.5,-100.00,ESE,115,3.2,8.7,38,0.00,,,0.00,WSDL version 423,2013-01-25 02:41:00,
2013-01-24 21:47:00,17.5,-1.6,-100.00,ESE,115,3.6,10.1,38,0.00,,,0.00,WSDL version 423,2013-01-25 02:47:00,
2013-01-24 21:53:00,17.4,-1.8,-100.00,ESE,115,4.9,8.1,38,0.00,,,0.00,WSDL version 423,2013-01-25 02:53:00,
2013-01-24 21:59:00,17.3,-2.3,-100.00,ESE,121,3.0,8.1,37,0.00,,,0.00,WSDL version 423,2013-01-25 02:59:00,
2013-01-24 22:05:00,17.2,-2.3,-100.00,ESE,115,3.5,7.6,38,0.00,,,0.00,WSDL version 423,2013-01-25 03:05:00,
2013-01-24 22:11:00,17.1,-2.5,-100.00,SSE,148,2.7,6.5,37,0.00,,,0.00,WSDL version 423,2013-01-25 03:11:00,
2013-01-24 22:17:00,17.1,-2.3,-100.00,ESE,121,3.2,8.7,38,0.00,,,0.00,WSDL version 423,2013-01-25 03:17:00,
2013-01-24 22:23:00,17.0,-2.6,-100.00,SE,130,2.6,8.7,37,0.00,,,0.00,WSDL version 423,2013-01-25 03:23:00,
2013-01-24 22:29:00,16.9,-2.5,-100.00,ESE,120,2.5,6.5,38,0.00,,,0.00,WSDL version 423,2013-01-25 03:29:00,
2013-01-24 22:35:00,16.9,-2.3,-100.00,SE,125,3.5,7.8,38,0.00,,,0.00,WSDL version 423,2013-01-25 03:35:00,
2013-01-24 22:41:00,16.9,-2.2,-100.00,ESE,121,3.8,7.8,38,0.00,,,0.00,WSDL version 423,2013-01-25 03:41:00,
2013-01-24 22:47:00,16.8,-2.2,-100.00,ESE,113,4.7,9.6,38,0.00,,,0.00,WSDL version 423,2013-01-25 03:47:00,
2013-01-24 22:53:00,16.7,-2.8,-100.00,SE,132,4.2,9.6,37,0.00,,,0.00,WSDL version 423,2013-01-25 03:53:00,
2013-01-24 22:59:00,16.7,-2.9,-100.00,SE,132,4.6,8.5,37,0.00,,,0.00,WSDL version 423,2013-01-25 03:59:00,
2013-01-24 23:05:00,16.7,-2.9,-100.00,ESE,104,5.4,14.8,37,0.00,,,0.00,WSDL version 423,2013-01-25 04:05:00,
2013-01-24 23:11:00,16.7,-2.7,-100.00,SE,133,5.5,14.8,37,0.00,,,0.00,WSDL version 423,2013-01-25 04:11:00,
2013-01-24 23:17:00,16.6,-3.0,-100.00,ESE,119,5.3,10.7,37,0.00,,,0.00,WSDL version 423,2013-01-25 04:17:00,
2013-01-24 23:23:00,16.5,-3.0,-100.00,ESE,108,4.9,9.6,37,0.00,,,0.00,WSDL version 423,2013-01-25 04:23:00,
2013-01-24 23:29:00,16.5,-3.0,-100.00,SE,140,4.7,10.5,37,0.00,,,0.00,WSDL version 423,2013-01-25 04:29:00,
2013-01-24 23:35:00,16.5,-3.0,-100.00,SE,139,4.2,10.5,37,0.00,,,0.00,WSDL version 423,2013-01-25 04:35:00,
2013-01-24 23:41:00,16.3,-3.2,-100.00,ESE,118,2.6,7.6,37,0.00,,,0.00,WSDL version 423,2013-01-25 04:41:00,
2013-01-24 23:47:00,16.2,-3.4,-100.00,ESE,123,4.2,8.5,37,0.00,,,0.00,WSDL version 423,2013-01-25 04:47:00,
2013-01-24 23:53:00,16.0,-3.5,-100.00,ESE,115,5.3,8.5,37,0.00,,,0.00,WSDL version 423,2013-01-25 04:53:00,
2013-01-24 23:59:00,16.0,-3.5,-100.00,SE,132,4.3,8.1,37,0.00,,,0.00,WSDL version 423,2013-01-25 04:59:00,